Rock Falls, IL

11:51 PM CST on February 24, 2017 (GMT -0600)
Whiteside County-Bittorf

Weather History for KSQI - February, 2015

Change the Weather History Date:

Wednesday, February 25, 2015

  Actual Average Record
Temperature  
Mean Temperature 14 °F -  
Max Temperature 21 °F 36 °F 55 °F (1998)
Min Temperature 8 °F 21 °F -2 °F (2003)
Degree Days  
Heating Degree Days 50    
Moisture  
Dew Point 8 °F    
Average Humidity 70    
Maximum Humidity 86    
Minimum Humidity 46    
Precipitation  
Precipitation 0.00 in - - ()
Sea Level Pressure  
Sea Level Pressure 29.97 in    
Wind  
Wind Speed 8 mph (NE)    
Max Wind Speed 15 mph    
Max Gust Speed 20 mph    
Visibility 7 miles    
Events      
Averages and records for this station are not official NWS values.
T = Trace of Precipitation, MM = Missing Value Source: NWS Daily Summary

Daily Weather History Graph

Daily Weather History Graph

Search for Another Location

Airport or City:

Trip Planner

Search our weather history database for the weather conditions in past years. The results will help you decide how hot, cold, wet, or windy it might be!

Date:

Astronomy

Feb. 25, 2015 Rise Set
Actual Time 6:40 AM CST 5:44 PM CST
Civil Twilight 6:12 AM CST 6:12 PM CST
Nautical Twilight 5:39 AM CST 6:44 PM CST
Astronomical Twilight 5:07 AM CST 7:16 PM CST
Moon 10:55 AM CST 12:38 AM CST
Length of Visible Light 12h 00m
Length of Day
11h 04m
Waxing Crescent, 50% of the Moon is Illuminated
Feb 25
Waxing Crescent
Mar 5
Full
Mar 13
Last Quarter
Mar 20
New
Mar 27
First Quarter

Hourly Weather History & Observations

Time (CST) Temp. Windchill Dew Point Humidity Pressure Visibility Wind Dir Wind Speed Gust Speed Precip Events Conditions
12:15 AM 19.4 °F 10.4 °F 10.4 °F 68% 29.88 in 10.0 mi WNW 6.9 mph - N/A   Clear
12:35 AM 17.6 °F 8.2 °F 8.6 °F 68% 29.88 in 10.0 mi WNW 6.9 mph - N/A   Clear
12:55 AM 17.6 °F 9.3 °F 10.4 °F 73% 29.88 in 10.0 mi WNW 5.8 mph - N/A   Clear
1:15 AM 15.8 °F 5.1 °F 8.6 °F 73% 29.89 in 10.0 mi West 8.1 mph - N/A   Clear
1:35 AM 12.2 °F 2.9 °F 5.0 °F 73% 29.90 in 10.0 mi WNW 5.8 mph - N/A   Clear
1:55 AM 15.8 °F 8.6 °F 8.6 °F 73% 29.90 in 10.0 mi WNW 4.6 mph - N/A   Clear
2:15 AM 15.8 °F 6.1 °F 6.8 °F 68% 29.90 in 10.0 mi WNW 6.9 mph - N/A   Clear
2:35 AM 12.2 °F 4.3 °F 6.8 °F 79% 29.91 in 10.0 mi NW 4.6 mph - N/A   Clear
2:55 AM 12.2 °F 6.1 °F 6.8 °F 79% 29.90 in 10.0 mi North 3.5 mph - N/A   Clear
3:15 AM 15.8 °F 7.2 °F 6.8 °F 68% 29.89 in 10.0 mi NNE 5.8 mph - N/A   Clear
3:35 AM 17.6 °F 9.3 °F 5.0 °F 58% 29.90 in 10.0 mi North 5.8 mph - N/A   Clear
3:55 AM 15.8 °F 10.2 °F 3.2 °F 58% 29.91 in 10.0 mi NNW 3.5 mph - N/A   Clear
4:15 AM 15.8 °F 8.6 °F 5.0 °F 62% 29.92 in 10.0 mi NNE 4.6 mph - N/A   Clear
4:35 AM 15.8 °F 8.6 °F 3.2 °F 58% 29.92 in 10.0 mi NE 4.6 mph - N/A   Clear
4:55 AM 10.4 °F 0.8 °F -2.2 °F 57% 29.92 in 10.0 mi ENE 5.8 mph - N/A   Clear
5:15 AM 10.4 °F 4.0 °F 1.4 °F 67% 29.93 in 10.0 mi NE 3.5 mph - N/A   Clear
5:35 AM 8.6 °F -1.3 °F -0.4 °F 67% 29.94 in 10.0 mi ENE 5.8 mph - N/A   Clear
5:55 AM 8.6 °F -2.6 °F -2.2 °F 62% 29.96 in 10.0 mi ENE 6.9 mph - N/A   Partly Cloudy
6:15 AM 12.2 °F -2.5 °F 5.0 °F 73% 29.94 in 10.0 mi East 12.7 mph - N/A   Mostly Cloudy
6:35 AM 12.2 °F 1.7 °F 1.4 °F 62% 29.94 in 10.0 mi ESE 6.9 mph - N/A   Overcast
6:55 AM 12.2 °F 1.7 °F 1.4 °F 62% 29.94 in 10.0 mi ESE 6.9 mph - N/A   Overcast
7:15 AM 12.2 °F 2.9 °F 3.2 °F 67% 29.96 in 10.0 mi ESE 5.8 mph - N/A   Mostly Cloudy
7:35 AM 12.2 °F 0.7 °F 3.2 °F 67% 29.98 in 10.0 mi East 8.1 mph - N/A   Overcast
7:55 AM 14.0 °F 1.2 °F 3.2 °F 62% 29.98 in 10.0 mi East 10.4 mph - N/A   Overcast
8:15 AM 15.8 °F 4.2 °F 3.2 °F 58% 30.00 in 10.0 mi East 9.2 mph - N/A   Overcast
8:35 AM 15.8 °F 6.1 °F 3.2 °F 58% 30.02 in 10.0 mi East 6.9 mph - N/A   Overcast
8:55 AM 15.8 °F 2.7 °F 5.0 °F 62% 30.01 in 10.0 mi East 11.5 mph - N/A   Overcast
9:15 AM 15.8 °F 4.2 °F 5.0 °F 62% 30.02 in 10.0 mi East 9.2 mph - N/A   Overcast
9:35 AM 15.8 °F 2.7 °F 5.0 °F 62% 30.01 in 10.0 mi East 11.5 mph - N/A   Overcast
9:55 AM 15.8 °F 2.1 °F 5.0 °F 62% 30.01 in 10.0 mi East 12.7 mph - N/A   Overcast
10:15 AM 15.8 °F 3.4 °F 5.0 °F 62% 30.02 in 10.0 mi East 10.4 mph - N/A   Overcast
10:35 AM 17.6 °F 5.0 °F 6.8 °F 63% 30.03 in 10.0 mi East 11.5 mph - N/A   Overcast
10:55 AM 17.6 °F 5.0 °F 3.2 °F 53% 30.01 in 10.0 mi East 11.5 mph - N/A   Overcast
11:15 AM 17.6 °F 4.3 °F 6.8 °F 63% 30.00 in 10.0 mi East 12.7 mph - N/A   Mostly Cloudy
11:35 AM 17.6 °F 3.7 °F 5.0 °F 58% 30.00 in 10.0 mi East 13.8 mph - N/A   Mostly Cloudy
11:55 AM 17.6 °F 5.0 °F 5.0 °F 58% 29.99 in 10.0 mi East 11.5 mph - N/A   Overcast
12:15 PM 19.4 °F 6.6 °F 3.2 °F 49% 29.98 in 10.0 mi East 12.7 mph - N/A   Overcast
12:35 PM 19.4 °F 7.2 °F 3.2 °F 49% 29.97 in 10.0 mi ENE 11.5 mph - N/A   Mostly Cloudy
12:55 PM 19.4 °F 7.9 °F 3.2 °F 49% 29.96 in 10.0 mi ENE 10.4 mph - N/A   Overcast
1:15 PM 19.4 °F 7.2 °F 3.2 °F 49% 29.95 in 10.0 mi ENE 11.5 mph - N/A   Overcast
1:35 PM 21.2 °F 10.9 °F 3.2 °F 46% 29.95 in 10.0 mi ENE 9.2 mph - N/A   Overcast
1:55 PM 21.2 °F 10.1 °F 6.8 °F 54% 29.94 in 10.0 mi ENE 10.4 mph - N/A   Overcast
2:15 PM 19.4 °F 8.6 °F 6.8 °F 58% 29.95 in 2.5 mi ENE 9.2 mph - N/A   Overcast
2:35 PM 17.6 °F 4.3 °F 10.4 °F 73% 29.94 in 1.2 mi East 12.7 mph - N/A   Overcast
2:55 PM 17.6 °F 4.3 °F 10.4 °F 73% 29.93 in 1.2 mi East 12.7 mph - N/A   Overcast
3:15 PM 17.6 °F 3.2 °F 12.2 °F 79% 29.92 in 1.0 mi East 15.0 mph - N/A   Overcast
3:35 PM 17.6 °F 4.3 °F 12.2 °F 79% 29.92 in 1.5 mi East 12.7 mph - N/A   Overcast
3:55 PM 17.6 °F 5.0 °F 12.2 °F 79% 29.92 in 1.0 mi East 11.5 mph - N/A   Overcast
4:15 PM 17.6 °F 3.7 °F 12.2 °F 79% 29.92 in 0.8 mi East 13.8 mph - N/A   Overcast
4:35 PM 17.6 °F 6.4 °F 12.2 °F 79% 29.94 in 0.5 mi ENE 9.2 mph - N/A   Overcast
4:55 PM 17.6 °F 6.4 °F 12.2 °F 79% 29.95 in 0.5 mi ENE 9.2 mph - N/A   Overcast
5:15 PM 17.6 °F 6.4 °F 12.2 °F 79% 29.96 in 1.0 mi ENE 9.2 mph - N/A   Overcast
5:35 PM 17.6 °F 7.3 °F 14.0 °F 86% 29.97 in 1.0 mi NE 8.1 mph - N/A   Overcast
5:55 PM 17.6 °F 6.4 °F 14.0 °F 86% 29.98 in 1.8 mi NNE 9.2 mph - N/A   Overcast
6:15 PM 17.6 °F 5.7 °F 14.0 °F 86% 29.99 in 3.0 mi NNE 10.4 mph - N/A   Overcast
6:35 PM 17.6 °F 6.4 °F 12.2 °F 79% 29.99 in 3.0 mi NNE 9.2 mph - N/A   Overcast
6:55 PM 17.6 °F 5.0 °F 12.2 °F 79% 30.00 in 4.0 mi NE 11.5 mph - N/A   Overcast
7:15 PM 17.6 °F 5.0 °F 12.2 °F 79% 30.00 in 5.0 mi NE 11.5 mph - N/A   Overcast
7:35 PM 15.8 °F 1.4 °F 12.2 °F 86% 29.99 in 3.0 mi NE 13.8 mph - N/A   Overcast
7:55 PM 15.8 °F 3.4 °F 12.2 °F 86% 30.00 in 3.0 mi NE 10.4 mph - N/A   Overcast
8:15 PM 15.8 °F 2.7 °F 12.2 °F 86% 30.01 in 2.0 mi NE 11.5 mph - N/A   Overcast
8:35 PM 15.8 °F 2.1 °F 12.2 °F 86% 30.01 in 1.5 mi NE 12.7 mph - N/A   Overcast
8:55 PM 15.8 °F 2.7 °F 12.2 °F 86% 30.03 in 2.5 mi NE 11.5 mph 19.6 mph N/A   Overcast
9:15 PM 15.8 °F 2.1 °F 12.2 °F 86% 30.03 in 2.0 mi NE 12.7 mph - N/A   Overcast
9:35 PM 15.8 °F 2.7 °F 12.2 °F 86% 30.03 in 2.5 mi NE 11.5 mph 18.4 mph N/A   Overcast
9:55 PM 15.8 °F 2.7 °F 12.2 °F 86% 30.04 in 2.5 mi NNE 11.5 mph - N/A   Overcast
10:15 PM 15.8 °F 2.7 °F 12.2 °F 86% 30.05 in 8.0 mi NNE 11.5 mph - N/A   Overcast
10:35 PM 15.8 °F 2.7 °F 10.4 °F 79% 30.05 in 8.0 mi NNE 11.5 mph - N/A   Overcast
10:55 PM 15.8 °F 2.7 °F 10.4 °F 79% 30.05 in 8.0 mi NNE 11.5 mph - N/A   Mostly Cloudy
11:15 PM 15.8 °F 3.4 °F 10.4 °F 79% 30.05 in 10.0 mi NNE 10.4 mph - N/A   Mostly Cloudy
11:35 PM 15.8 °F 3.4 °F 10.4 °F 79% 30.06 in 3.0 mi NNE 10.4 mph - N/A   Overcast
11:55 PM 15.8 °F 4.2 °F 10.4 °F 79% 30.06 in 5.0 mi NNE 9.2 mph - N/A   Overcast